Home > Time Zones > World Clock > Weather > Iran > Rasht > Past weeks

Flag for Iran Weather past 2 weeks in Rasht, Iran

Now
64 °F

Broken clouds.


Feels Like: 64 °F
Forecast: 54 / 69 °F
Wind: 7 mph from North

Location: Rasht Airport

Current Time: Apr 21, 2015 at 2:53:43 PM

Latest Report: Apr 21, 2015 at 2:30 PM


Visibility: 5 mi

Pressure: 29.71 "Hg

Humidity: 78%

Dew point: 57 °F

Location of RashtLocation

Historic Weather in Rasht — Graph

°F

Rasht temperature yesterday

Maximum temperature yesterday: 86 °F (at 11:30 AM)
Minimum temperature yesterday: 54 °F (at 6:30 PM)
Average temperature yesterday: 64 °F

Past Weeks' High & Low Weather Summary

 TemperatureHumidityPressure
High86 °F (Apr 20, 11:30 AM)100% (Apr 7, 7:00 AM)30.24 "Hg (Apr 7, 7:00 AM)
Low45 °F (Apr 15, 7:30 AM)18% (Apr 20, 12:30 PM)29.71 "Hg (Apr 10, 6:30 AM)
Average57 °F83%29.98 "Hg
* Reported Apr 6 1:30 PM — Apr 21 1:30 PM, Rasht, Weather by CustomWeather, © 2015

Note: Actual official high and low records may vary slightly from our data, if they occured in-between our weather recording intervals... More about our weather records

Advertising

Rasht weather history for previous 24 hours

 ConditionsComfort  
Time TempWeatherWind HumidityBarometerVisibility
1:30 PM
Tue, Apr 21
63 °FPartly sunny.9 mph77%29.74 "Hg5 mi
1:00 PM63 °FBroken clouds.9 mph77%29.74 "Hg5 mi
12:30 PM63 °FBroken clouds.7 mph77%29.74 "Hg5 mi
12:00 PM61 °FScattered clouds.2 mph77%29.77 "Hg5 mi
11:30 AM61 °FScattered clouds.7 mph77%29.77 "Hg5 mi
11:00 AM57 °FBroken clouds.7 mph82%29.77 "Hg5 mi
10:30 AM57 °FBroken clouds.5 mph82%29.77 "Hg5 mi
10:00 AM55 °FPartly sunny.5 mph88%29.77 "Hg4 mi
9:30 AM55 °FPartly sunny.7 mph88%29.77 "Hg4 mi
9:00 AM55 °FFog.5 mph88%29.77 "Hg3 mi
8:30 AM55 °FFog.5 mph88%29.77 "Hg3 mi
8:00 AM54 °FFog.5 mph88%29.80 "Hg3 mi
7:30 AM54 °FFog.5 mph88%29.80 "Hg3 mi
6:30 AM54 °FFog.No wind94%29.80 "Hg3 mi
4:30 AM54 °FFog.5 mph94%29.83 "Hg3 mi
8:00 PM
Mon, Apr 20
54 °FDrizzle. Mostly cloudy.7 mph88%29.86 "Hg2 mi
7:30 PM54 °FDrizzle. Mostly cloudy.7 mph88%29.86 "Hg2 mi
7:00 PM54 °FFog.5 mph94%29.86 "Hg3 mi
6:30 PM54 °FFog.5 mph94%29.86 "Hg3 mi
6:00 PM55 °FFog.5 mph88%29.89 "Hg3 mi
5:30 PM55 °FFog.5 mph88%29.89 "Hg3 mi
5:00 PM55 °FFog.5 mph88%29.92 "Hg3 mi
4:30 PM55 °FFog.5 mph88%29.92 "Hg3 mi
4:00 PM55 °FFog.7 mph88%29.95 "Hg3 mi
3:30 PM55 °FFog.7 mph88%29.95 "Hg3 mi
3:00 PM57 °FFog.7 mph82%29.95 "Hg3 mi
2:30 PM57 °FFog.7 mph82%29.95 "Hg3 mi
2:00 PM63 °FHaze.22 mph77%29.80 "Hg2 mi
Weather by CustomWeather, © 2015

See weather overviewHow to use our weather pages